[Date Prev][Date Next][Thread Prev][Thread Next] - [Date Index][Thread Index][Author Index]

2 Line ISS Keps 8-29



ISS
1 25544U 98067A   02241.16184028  .00032995  00000-0  42179-3 0   938
2 25544  51.6385  46.7459 0016466 194.9801 142.8995 15.58765363215409


----
Via the sarex mailing list at AMSAT.ORG courtesy of AMSAT-NA.
To unsubscribe, send "unsubscribe sarex" to Majordomo@amsat.org



AMSAT Top AMSAT Home